Location: Great Chart
(51.1333°N, 0.8333°E)
Time: 10:33:36
(UTC+00:00)

Cosmos 972 Rocket - Pass Details

Date: 19 September 2020
Orbit: 713 x 1152 km, 75.8° (Epoch: 30 October)

Event Time Altitude Azimuth Distance (km) Brightness Sun altitude
Exits shadow 03:24:14 42° 203° (SSW) 1,022 4.2 -20.8°
Maximum altitude 03:25:56 87° 289° (WNW) 722 3.7 -20.6°
Drops below altitude 10° 03:30:53 10° 21° (NNE) 2,225 7.1 -19.9°
Sets 03:33:15 0° 22° (NNE) 3,176 8.0 -19.6°
